Regional Weather Roundup
Issued by NWS Grand Forks, ND

Home | Current Version | Previous Version | Text Only | Print | Product List | Glossary Off
Versions: 1 2 3 4 5 6 7 8 9 10 11 12 13 14 15 16 17 18 19 20 21 22 23 24 25 26 27 28 29 30 31 32 33 34 35 36 37 38 39 40 41 42 43 44 45 46 47 48 49 50

000
ASUS43 KFGF 292110
RWRFGF
PRAIRIE TO PINES  WEATHER ROUNDUP
NATIONAL WEATHER SERVICE EASTERN NORTH DAKOTA/GRAND FORKS ND
400 PM CDT SUN MAY 29 2016

 **SATELLITE DATA USED TO AUGMENT SKY COVER AT AUTOMATED STATIONS**
 *****  WEATHER ACROSS EASTERN NORTH DAKOTA  *****

CITY           SKY/WX    TMP DP  RH WIND       PRES   REMARKS
GRAND FORKS    MOSUNNY   75  48  38 W17       29.91F
GRAND FRKS AFB MOSUNNY   76  46  34 NW16G23   29.92F
GRAND FRKS NWS   N/A     75 N/A N/A NW10        N/A
DEVILS LAKE    PTSUNNY   74  41  30 W14G23    29.95S
FARGO          MOSUNNY   78  48  34 NW14G22   29.94S
WAHPETON ARPT  PTCLDY    77  41  27 NW18G28   29.96S
$$

 ***** WEATHER ACROSS CENTRAL AND WESTERN NORTH DAKOTA  *****

CITY           SKY/WX    TMP DP  RH WIND       PRES   REMARKS
BISMARCK       MOSUNNY   79  45  29 MISG      29.98F
MINOT          MOSUNNY   77  38  24 W16       29.95F
JAMESTOWN      MOSUNNY   75  45  34 W17G24    29.96F
MINOT AFB      SUNNY     73  39  29 NW15      29.94S
GARRISON         N/A     75  42  30 W15G25    29.97F
WILLISTON      SUNNY     77  35  21 W13       29.96S
DICKINSON      MOSUNNY   72  34  24 W12       29.96F
HETTINGER      CLOUDY    73  46  38 VRB3      30.01S
$$

 *****  OTHER AIRPORT OBSERVATIONS IN OUR AREA  *****

CITY           SKY/WX    TMP DP  RH WIND       PRES   REMARKS
WALHALLA       FAIR      72  66  83 NW10G22   29.92S
GRAFTON AIRPOR FAIR      72  52  49 NW7G13    29.93F
VALLEY CITY AR FAIR      75  45  33 W15G21    29.98F
CANDO          NOT AVBL
CAVALIER APRT  FAIR      70  55  60 N9        29.91F
GWINNER        MOCLDY    77  46  33 NW13G25   29.98S
SHEYENNE NWR     N/A     79  44  28 NW14      29.95
ROLLA          FAIR      70  37  30 NW16      29.95S
 ***** THE ABOVE OBSERVATIONS ARE NON NWS ARE NOT QUALITY
       CONTROLLED AND MAY MIS-REPORT RAIN FOR SNOW...
$$

  *****  WEATHER ACROSS NORTHERN MINNESOTA  *****

CITY           SKY/WX    TMP DP  RH WIND       PRES   REMARKS
FLAG ISLAND    CLOUDY    63  55  77 NW10      29.87S
WARROAD        MOSUNNY   66  57  72 W10G21    29.89F
ROSEAU         MOSUNNY   68  59  73 W10G18    29.90F
HALLOCK        MOSUNNY   70  54  56 NW12      29.90F
THF RVR FALLS  MOSUNNY   70  54  56 W14       29.94F
BAUDETTE       CLOUDY    66  54  65 W16       29.88F
WASKISH          N/A     66  57  72 SW9       29.91S
CROOKSTON      MOSUNNY   73  54  49 W7        29.93F
STEPHEN NDAWN    N/A     72  57  60 W8          N/A
GREENBUSH NDAW   N/A     70  57  64 W12         N/A
$$
  *****  WEATHER ACROSS CENTRAL AND WEST MINNESOTA  *****

CITY           SKY/WX    TMP DP  RH WIND       PRES   REMARKS
FOSSTON        MOSUNNY   70  54  56 W15       29.95S
BEMIDJI        PTSUNNY   70  54  56 W12       29.93S
PARK RAPIDS    PTSUNNY   71  53  52 NW16      29.95S
ELBOW LAKE     FAIR      74  51  44 NW14G22   29.97S
WADENA         MOSUNNY   72  54  53 NW10      29.95S
DETROIT LAKES  MOSUNNY   68  55  64 N5        29.98R
MOORHEAD       MOSUNNY   72  52  49 NW16      29.95S
FERGUS FALLS   MOSUNNY   75  52  43 W12G22    29.92S
MORRIS MN      SUNNY     75  46  35 NW14G25   29.96R
STAPLES        MOSUNNY   72  52  49 NW12G18   29.95S
$$
  *****  WEATHER ELSEWHERE ACROSS MINNESOTA  *****

CITY           SKY/WX    TMP DP  RH WIND       PRES   REMARKS
DULUTH         PTSUNNY   67  54  63 W17G29    29.89R
INTRNTL FALLS  CLOUDY    61  55  81 W12       29.88S
ELY            CLOUDY    61  55  82 W14       29.86S
CLOQUET        CLOUDY    70  52  52 W15G24    29.91R
WHEATON        MOSUNNY   81  50  34 W17G25    29.98S
BRAINERD       SUNNY     74  54  49 W13G22    29.94S
HIBBING        CLOUDY    65  55  70 W10       29.90R
ALEXANDRIA     CLOUDY    72  55  55 NW10      29.98F
SAINT CLOUD    PTSUNNY   77  55  46 W15G23    29.94F
MINNEAPOLIS    CLOUDY    78  56  46 NW15      29.95F
$$

  *****  WEATHER ACROSS SOUTH DAKOTA  *****

CITY           SKY/WX    TMP DP  RH WIND       PRES   REMARKS
SIOUX FALLS    MOSUNNY   78  50  37 NW9G17    30.03F
BROOKINGS      SUNNY     75  49  39 NW10      30.03S
WATERTOWN      SUNNY     77  46  33 NW14G20   30.02S
HURON          SUNNY     78  51  38 NW6       30.02F
SISSETON         N/A     81  42  25 N20G26    29.96F
ABERDEEN       MOSUNNY   80  46  30 W9        30.00S
MITCHELL       SUNNY     79  49  34 CALM      30.03F
PIERRE         SUNNY     77  50  38 CALM      30.01F
MOBRIDGE       SUNNY     78  49  35 S9G17     29.98F
RAPID CITY     CLOUDY    69  50  50 SE7       30.03F
$$

  *****  SOME WEATHER IN NEARBY STATES *****

CITY           SKY/WX    TMP DP  RH WIND       PRES   REMARKS
GLASGOW MT     SUNNY     72  36  26 W8G18     29.94F
GREAT FALLS MT MOSUNNY   70  32  24 W14G23    29.95F
CHEYENNE WY    SUNNY     72  36  26 VRB5      30.13F
SCOTTSBLUFF NE MOSUNNY   75  44  33 S6        30.05F
OMAHA NE       MOSUNNY   85  56  37 VRB6      30.03F
DES MOINES IA  MOSUNNY   83  53  35 W9        30.03F
DAVENPORT IA   MOSUNNY   80  56  43 W14G21    30.03F
CHICAGO IL     MOSUNNY   78  60  53 W17G23    29.99F
EAU CLAIRE WI  MOSUNNY   76  57  51 W15G24    29.92S
LA CROSSE WI   PTSUNNY   81  56  42 W18       29.94F
$$

  *****  SOME NATIONAL WEATHER *****

CITY           SKY/WX    TMP DP  RH WIND       PRES   REMARKS
LA GUARDIA NY  PTSUNNY   79  71  76 S18       30.07F
RALEIGH NC     CLOUDY    72  70  94 N8        30.04R THUNDER
ATLANTA GA     MOSUNNY   88  57  34 NW12      30.05F
NEW ORLEANS LA PTSUNNY   89  66  46 N9        30.07F HX  91
OKLAHOMA CITY  MOSUNNY   88  54  31 CALM      30.04F
ALBUQUERQUE NM MOSUNNY   85  15   7 W15       30.09F
SALT LAKE CITY PTSUNNY   77  40  26 N8        30.03S THUNDER
LOS ANGELES CA MOSUNNY   67  53  61 W16       30.01S
BOISE ID       MOSUNNY   79  29  16 NW9       29.96F
SEATTLE WA     PTSUNNY   60  47  61 NE15      30.18R
$$

*** WEATHER ACROSS MANITOBA...SASKATCHEWAN AND ONTARIO ***
                ***ONTARIO***

CITY           SKY/WX    TMP DP  RH WIND       PRES   REMARKS
GERALDTON      LGT RAIN  57  57 100 N3        29.72F
THUNDER BAY    LGT RAIN  63  61  94 E3        29.75R
SIOUX LOOKOUT  DRIZZLE   55  52  88 NW10      29.81R
TORONTO        CLOUDY    82  61  47 SW15G23   29.95F
BIG TROUT LK   CLOUDY    46  41  81 NE14G22   29.91F
PICKLE LAKE    DRIZZLE   48  46  93 N5        29.80S
DRYDEN         LGT RAIN  57  55  94 W10       29.82
KENORA         DRIZZLE   59  54  82 W10G18    29.87R
$$
                *** MANITOBA***

CITY           SKY/WX    TMP DP  RH WIND       PRES   REMARKS
BRANDON        PTSUNNY   70  46  43 W17G24    29.90F
DAUPHIN        SUNNY     64  52  63 NE7       29.89F
ISLAND LAKE    CLOUDY    57  50  77 SE10      29.91S
PILOT MOUND      N/A     66  50  55 NW6         N/A
THE PAS        DRIZZLE   50  45  81 N6        29.93S
THOMPSON       CLOUDY    50  48  93 NE6       29.97S
WINNIPEG       PTSUNNY   66  54  63 NW14G21   29.90S
LYNN LAKE      LGT RAIN  48  46  93 E10       29.99S
CHURCHILL      PTSUNNY   32  28  86 E14G20    30.19S WCI  22
GILLAM         LGT RAIN  46  39  76 NE10G17   30.04S
$$
                ***SASKATCHEWAN***

CITY           SKY/WX    TMP DP  RH WIND       PRES   REMARKS
ESTEVAN        MOSUNNY   72  43  35 W15       29.94S
KINDERSLEY     MOSUNNY   68  37  32 VRB8      29.86S
LLOYDMINSTER   PTSUNNY   63  45  51 E6        29.88S
PRINCE ALBERT  CLOUDY    57  48  72 E5        29.88S
REGINA         PTSUNNY   72  37  28 SW15G22   29.90S
YORKTON        MOSUNNY   70  45  40 SW14      29.86F
N. BATTLEFORD  SUNNY     66  46  48 NW10      29.88F
LA RONGE       PTSUNNY   55  43  62 E7        29.94S
SASKATOON      MOSUNNY   66  45  45 NW6       29.88S
SWIFT CURRENT  MOSUNNY   68  41  37 W16G24    29.89F
$$
NOTE: THESE ARE AUTOMATED STATIONS WITH LIMITED QUALITY CONTROL
      "FAIR" INDICATES FEW OR NO CLOUDS BELOW 12,000 FEET WITH NO
      SIGNIFICANT WEATHER AND/OR OBSTRUCTIONS TO VISIBILITY.
      SKY/WX - SKY CONDITION AND SIGNIFICANT WEATHER.
      TMP - AIR TEMPERATURE.    DP   - DEWPOINT TEMPERATURE.
      RH  - RELATIVE HUMIDITY.  PRES - PRESSURE.
      HX  - HEAT INDEX.         WCI  - WIND CHILL INDEX.
$




USA.gov is the U.S. government's official web portal to all federal, state and local government web resources and services.